カタログに戻る

COSMOS 1275 DEB

運用中PO
NORAD 12773·DEBRIS·🇷🇺 Russia

打ち上げ Jun 4, 1981 から Plesetsk Cosmodrome

Loading…

次のパス (今後24時間)

TLE

最新Source: Space-Track

元期: Sep 14, 2026, 21:44 UTC

1 12773U 81053DS  26257.90618470  .00020507  00000-0  27749-2 0  9999
2 12773  82.9180 227.9123 0068187 280.7376  78.6165 14.77259604290200

AllMySatでCOSMOS 1275 DEBをリアルタイム追跡

Download on the App Store